Weather History for GMMN - September, 2013

Change the Weather History Date:

Friday, September 20, 2013

  Actual Average Record
Temperature  
Mean Temperature 72 °F -  
Max Temperature 83 °F 78 °F 93 °F (2008)
Min Temperature 60 °F 59 °F 57 °F (1996)
Cooling Degree Days 6    
Growing Degree Days 22 (Base 50)    
Moisture  
Dew Point 62 °F    
Average Humidity 73    
Maximum Humidity 94    
Minimum Humidity 42    
Precipitation  
Precipitation 0.00 in - - ()
Sea Level Pressure  
Sea Level Pressure 30.00 in    
Wind  
Wind Speed 6 mph ()    
Max Wind Speed 18 mph    
Max Gust Speed -    
Visibility 5.7 miles    
Events      
Averages and records for this station are not official NWS values.
T = Trace of Precipitation, MM = Missing Value Source: Averaged Metar Reports

Daily Weather History Graph

Daily Weather History Graph

Search for Another Location

Airport or City:

Trip Planner

Search our weather history database for the weather conditions in past years. The results will help you decide how hot, cold, wet, or windy it might be!

Date:

Astronomy

Sep. 20, 2013 Rise Set
Actual Time 7:17 AM WEST 7:29 PM WEST
Civil Twilight 6:52 AM WEST 7:54 PM WEST
Nautical Twilight 6:23 AM WEST 8:23 PM WEST
Astronomical Twilight 5:54 AM WEST 8:52 PM WEST
Moon 8:02 PM WEST (9/20) 8:11 AM WEST (9/20)
Length of Visible Light 13h 02m
Length of Day
12h 12m
Full, 99% of the Moon is Illuminated
Sep 20
Full
Sep 27
Last Quarter
Oct 5
New
Oct 12
First Quarter
Oct 19
Full

Hourly Weather History & Observations

Time (WEST) Temp. Heat Index Dew Point Humidity Pressure Visibility Wind Dir Wind Speed Gust Speed Precip Events Conditions
12:00 AM 68.0 °F - 60.8 °F 78% 30.01 in 6.2 mi NNE 3.5 mph - N/A   Partly Cloudy
12:30 AM 66.2 °F - 60.8 °F 83% 30.01 in 6.2 mi NNE 3.5 mph - N/A   Partly Cloudy
1:00 AM 66.2 °F - 60.8 °F 83% 30.01 in 6.2 mi NNE 4.6 mph - N/A   Partly Cloudy
1:30 AM 66.2 °F - 60.8 °F 83% 30.01 in 6.2 mi NNE 3.5 mph - N/A   Partly Cloudy
2:00 AM 66.2 °F - 60.8 °F 83% 30.01 in 6.2 mi NNE 3.5 mph - N/A   Partly Cloudy
2:30 AM 66.2 °F - 60.8 °F 83% 30.01 in 6.2 mi NE 3.5 mph - N/A   Partly Cloudy
3:00 AM 66.2 °F - 60.8 °F 83% 29.98 in 5.0 mi NE 4.6 mph - N/A   Partly Cloudy
3:30 AM 64.4 °F - 60.8 °F 88% 29.98 in 6.2 mi NE 5.8 mph - N/A   Partly Cloudy
4:00 AM 65 °F - 61 °F 83% 29.97 in 4 mi NE 5.8 mph - -   Scattered Clouds
4:00 AM 66.2 °F - 60.8 °F 83% 29.98 in 6.2 mi NE 5.8 mph - N/A   Partly Cloudy
4:30 AM 64.4 °F - 60.8 °F 88% 29.98 in 6.2 mi NE 5.8 mph - N/A   Partly Cloudy
5:00 AM 64.4 °F - 60.8 °F 88% 29.98 in 6.2 mi ENE 5.8 mph - N/A   Partly Cloudy
5:30 AM 62.6 °F - 59.0 °F 88% 29.98 in 4.3 mi East 5.8 mph - N/A   Partly Cloudy
6:00 AM 62.6 °F - 59.0 °F 88% 29.98 in 4.3 mi East 5.8 mph - N/A   Partly Cloudy
6:30 AM 62.6 °F - 59.0 °F 88% 29.98 in 5.0 mi East 3.5 mph - N/A   Partly Cloudy
7:00 AM 62 °F - 59 °F 87% 29.99 in 5 mi ENE 2.3 mph - -   Scattered Clouds
7:00 AM 62.6 °F - 59.0 °F 88% 29.98 in 5.0 mi ENE 2.3 mph - N/A   Partly Cloudy
7:30 AM 60.8 °F - 59.0 °F 94% 29.98 in 5.0 mi North 2.3 mph - N/A   Partly Cloudy
8:00 AM 62.6 °F - 60.8 °F 94% 30.01 in 5.6 mi NNE 3.5 mph - N/A   Partly Cloudy
8:30 AM 64.4 °F - 60.8 °F 88% 30.01 in 6.2 mi NNE 4.6 mph - N/A   Partly Cloudy
9:00 AM 66.2 °F - 62.6 °F 88% 30.01 in - NNE 5.8 mph - N/A   Clear
9:30 AM 69.8 °F - 62.6 °F 78% 30.01 in - NE 5.8 mph - N/A   Clear
10:00 AM 71 °F - 62 °F 64% 30.00 in 6 mi NE 9.2 mph - -   Scattered Clouds
10:00 AM 71.6 °F - 60.8 °F 69% 30.01 in - NE 9.2 mph - N/A   Clear
10:30 AM 73.4 °F - 62.6 °F 69% 30.01 in - NE 9.2 mph - N/A   Clear
11:00 AM 75.2 °F - 62.6 °F 65% 30.01 in - NNE 10.4 mph - N/A   Clear
11:30 AM 77.0 °F - 62.6 °F 61% 30.01 in - NNE 10.4 mph - N/A   Clear
12:00 PM 78.8 °F - 62.6 °F 57% 30.01 in - NNE 9.2 mph - N/A   Clear
12:30 PM 80.6 °F 81.8 °F 62.6 °F 54% 30.01 in - NNE 9.2 mph - N/A   Clear
1:00 PM 83 °F - 63 °F 42% 29.97 in 6 mi NNE 9.2 mph - -  
1:00 PM 82.4 °F 83.4 °F 62.6 °F 51% 30.01 in - NNE 9.2 mph - N/A   Clear
1:30 PM 82.4 °F 83.9 °F 64.4 °F 54% 30.01 in - North 10.4 mph - N/A   Clear
2:00 PM 82.4 °F 83.9 °F 64.4 °F 54% 29.98 in - North 11.5 mph - N/A   Clear
2:30 PM 82.4 °F 83.9 °F 64.4 °F 54% 29.98 in - North 11.5 mph - N/A   Clear
3:00 PM 82.4 °F 83.4 °F 62.6 °F 51% 29.98 in - North 13.8 mph - N/A   Clear
3:30 PM 82.4 °F 83.4 °F 62.6 °F 51% 29.98 in - NNE 15.0 mph - N/A   Clear
4:00 PM 82 °F - 63 °F 43% 29.95 in 6 mi North 16.1 mph - -  
4:00 PM 82.4 °F 83.4 °F 62.6 °F 51% 29.98 in - North 16.1 mph - N/A   Clear
4:30 PM 80.6 °F 82.3 °F 64.4 °F 58% 29.98 in - North 16.1 mph - N/A   Clear
5:00 PM 80.6 °F 82.3 °F 64.4 °F 58% 29.98 in - NNE 15.0 mph - N/A   Clear
5:30 PM 78.8 °F - 64.4 °F 61% 29.98 in - North 18.4 mph - N/A   Clear
6:00 PM 77.0 °F - 64.4 °F 65% 29.98 in - NNE 16.1 mph - N/A   Clear
6:30 PM 77.0 °F - 64.4 °F 65% 29.98 in - NNE 16.1 mph - N/A   Clear
7:00 PM 75 °F - 64 °F 59% 29.97 in 6 mi NNE 11.5 mph - -  
7:00 PM 75.2 °F - 64.4 °F 69% 29.98 in - NNE 11.5 mph - N/A   Clear
7:30 PM 73.4 °F - 62.6 °F 69% 29.98 in - NNE 11.5 mph - N/A   Clear
8:00 PM 73.4 °F - 64.4 °F 73% 30.01 in - NNE 11.5 mph - N/A   Clear
8:30 PM 71.6 °F - 64.4 °F 78% 30.01 in - NNE 9.2 mph - N/A   Clear
9:00 PM 71.6 °F - 64.4 °F 78% 30.04 in - NE 10.4 mph - N/A   Clear
9:30 PM 69.8 °F - 64.4 °F 83% 30.04 in - NE 8.1 mph - N/A   Clear
10:00 PM 70 °F - 64 °F 77% 30.02 in 6 mi NNE 6.9 mph - -  
10:00 PM 69.8 °F - 64.4 °F 83% 30.04 in - NNE 6.9 mph - N/A   Clear
10:30 PM 69.8 °F - 64.4 °F 83% 30.01 in - North 5.8 mph - N/A   Clear
11:00 PM 69.8 °F - 64.4 °F 83% 30.01 in - NNE 5.8 mph - N/A   Clear
11:30 PM 69.8 °F - 64.4 °F 83% 30.01 in - NNE 5.8 mph - N/A   Clear